Winfield, KS

10:13 PM CDT on July 30, 2016 (GMT -0500)
Strother

Weather History for KWLD - March, 2013

Change the Weather History Date:

Sunday, March 3, 2013

  Actual Average Record
Temperature  
Mean Temperature 46 °F -  
Max Temperature 63 °F 49 °F 70 °F (2011)
Min Temperature 30 °F 27 °F -4 °F (2014)
Degree Days  
Heating Degree Days 18    
Moisture  
Dew Point 31 °F    
Average Humidity 55    
Maximum Humidity 79    
Minimum Humidity 33    
Precipitation  
Precipitation 0.00 in - - ()
Sea Level Pressure  
Sea Level Pressure 29.88 in    
Wind  
Wind Speed 9 mph (SSE)    
Max Wind Speed 17 mph    
Max Gust Speed -    
Visibility 10 miles    
Events      
Averages and records for this station are not official NWS values.
T = Trace of Precipitation, MM = Missing Value Source: NWS Daily Summary

Daily Weather History Graph

Daily Weather History Graph

Search for Another Location

Airport or City:

Trip Planner

Search our weather history database for the weather conditions in past years. The results will help you decide how hot, cold, wet, or windy it might be!

Date:

Astronomy

Mar. 03, 2013 Rise Set
Actual Time 6:56 AM CST 6:24 PM CST
Civil Twilight 6:29 AM CST 6:50 PM CST
Nautical Twilight 5:59 AM CST 7:20 PM CST
Astronomical Twilight 5:29 AM CST 7:50 PM CST
Moon No Moon Rise 10:21 AM CST (3/3)
Length of Visible Light 12h 20m
Length of Day
11h 28m
Waning Gibbous, 63% of the Moon is Illuminated
Mar 3
Waning Gibbous
Mar 4
Last Quarter
Mar 11
New
Mar 19
First Quarter
Mar 27
Full

Hourly Weather History & Observations

Time (CST) Temp. Windchill Dew Point Humidity Pressure Visibility Wind Dir Wind Speed Gust Speed Precip Events Conditions
12:54 AM 30.9 °F 27.5 °F 24.1 °F 76% 30.18 in 10.0 mi SE 3.5 mph - N/A   Clear
1:54 AM 30.9 °F 26.2 °F 24.1 °F 76% 30.16 in 10.0 mi SE 4.6 mph - N/A   Clear
3:54 AM 30.9 °F 26.2 °F 24.1 °F 76% 30.10 in 10.0 mi SSE 4.6 mph - N/A   Clear
4:54 AM 30.0 °F 25.2 °F 24.1 °F 79% 30.08 in 10.0 mi SSE 4.6 mph - N/A   Clear
5:54 AM 32.0 °F 24.8 °F 25.0 °F 75% 30.07 in 10.0 mi SSE 8.1 mph - N/A   Clear
6:54 AM 32.0 °F 24.2 °F 25.0 °F 75% 30.05 in 10.0 mi SSE 9.2 mph - N/A   Clear
7:54 AM 33.1 °F 24.9 °F 26.1 °F 75% 30.04 in 10.0 mi SSE 10.4 mph - N/A   Clear
8:54 AM 39.0 °F 31.4 °F 28.0 °F 65% 30.01 in 10.0 mi South 12.7 mph - N/A   Clear
9:54 AM 45.0 °F 37.9 °F 28.9 °F 53% 29.99 in 10.0 mi South 16.1 mph - N/A   Clear
10:54 AM 50.0 °F - 30.9 °F 48% 29.94 in 10.0 mi South 12.7 mph - N/A   Clear
11:54 AM 54.0 °F - 33.1 °F 45% 29.92 in 10.0 mi South 12.7 mph - N/A   Clear
12:54 PM 57.9 °F - 35.1 °F 42% 29.87 in 10.0 mi SSE 16.1 mph - N/A   Clear
1:54 PM 63.0 °F - 35.1 °F 35% 29.82 in 10.0 mi South 16.1 mph - N/A   Clear
2:54 PM 61.0 °F - 34.0 °F 36% 29.78 in 10.0 mi SSE 15.0 mph - N/A   Clear
3:54 PM 63.0 °F - 33.1 °F 33% 29.74 in 10.0 mi SSE 17.3 mph - N/A   Clear
4:54 PM 61.0 °F - 35.1 °F 38% 29.74 in 10.0 mi SE 10.4 mph - N/A   Clear
5:54 PM 59.0 °F - 34.0 °F 39% 29.73 in 10.0 mi SE 16.1 mph - N/A   Clear
6:54 PM 55.9 °F - 34.0 °F 44% 29.71 in 10.0 mi SE 13.8 mph - N/A   Clear
7:54 PM 54.0 °F - 34.0 °F 47% 29.71 in 10.0 mi SE 11.5 mph - N/A   Clear
8:54 PM 53.1 °F - 34.0 °F 48% 29.68 in 10.0 mi SE 13.8 mph - N/A   Clear
9:54 PM 52.0 °F - 34.0 °F 50% 29.67 in 10.0 mi SE 13.8 mph - N/A   Clear
10:54 PM 50.0 °F - 34.0 °F 54% 29.65 in 10.0 mi SE 10.4 mph - N/A   Clear
11:54 PM 50.0 °F - 34.0 °F 54% 29.62 in 10.0 mi ESE 9.2 mph - N/A   Clear